Location: Newark
(40.7636°N, 73.9728°W)
Time: 14:57:50
(UTC+00:00)

ISS - Pass Details

Date: 01 October 2019
Orbit: 411 x 421 km, 51.6° (Epoch: 16 October)

Event Time Altitude Azimuth Distance (km) Brightness Sun altitude
Rises 23:58:53 0° 308° (NW) 2,345 1.2 -15.7°
Reaches altitude 10° 00:01:47 10° 335° (NNW) 1,482 -0.5 -16.3°
Maximum altitude 00:03:35 14° 8° (N) 1,276 -1.3 -16.6°
Enters shadow 00:04:36 12° 28° (NNE) 1,347 -1.4 -16.8°
